Temp
64 60 56 62 64 66 65 61 61 66 65 60 62 64 68 62 60 61 61 61 59 58 56 56 56 57 55 55 55 54 54 55 56 55 56 57 57 57 56 56 56 57 58 58
56 53 65 68 64 63 62 58 58 64 62 57 60 60 66 65 59 61 61 60 59 55 55 54 56 56 55 54 55 55 56 59 61 61 60 59 57 55 54 54 54 54 54 55
57 63 64 62 58 56 57 56 57 58 58 58 57 54 59 65 60 57 59 61 59 57 55 53 54 55 56 55 55 56 58 59 59 59 58 56 56 56 53 52 51 51 53 53
58 65 58 56 55 57 53 63 59 57 53 48 57 45 60 62 51 51 53 56 56 56 56 55 53 54 53 53 54 56 56 56 58 60 59 58 56 51 51 50 50 49 51 51
57 53 53 54 56 59 55 59 56 55 51 50 52 45 55 58 50 50 52 53 55 55 54 53 53 52 52 52 52 53 54 54 55 56 56 54 51 52 52 50 47 47 48 49
57 58 59 59 58 59 58 54 51 51 50 40 50 48 51 53 52 56 53 53 54 54 54 53 52 51 50 50 51 52 52 52 54 55 54 53 50 50 49 48 47 47 48 48
54 54 57 57 52 53 54 50 42 38 35 36 49 48 52 62 57 60 52 52 54 53 52 51 48 49 49 48 49 51 51 50 52 52 52 52 51 51 49 48 48 47 46 45
48 46 54 56 56 53 48 51 42 31 36 42 40 39 51 54 57 56 56 54 54 51 51 50 49 49 48 48 49 50 49 48 50 50 50 51 51 50 49 49 48 47 45 45
48 48 54 55 58 57 49 44 55 39 31 34 44 47 54 46 45 49 53 52 51 50 50 49 50 50 49 48 48 49 48 48 49 48 49 48 49 48 47 47 47 46 45 44
54 44 49 49 52 53 51 55 40 41 30 30 43 45 48 41 44 46 49 50 50 50 50 50 50 50 49 49 49 49 49 47 48 48 48 48 47 47 47 46 44 44 43 43
55 47 42 45 44 46 44 43 48 48 43 36 37 45 57 55 51 47 49 50 50 49 50 50 50 50 50 49 48 48 48 47 46 47 46 46 45 45 45 44 43 42 42 41
51 43 38 45 52 54 54 48 49 40 36 42 42 46 52 57 56 53 50 51 52 51 51 52 50 49 48 47 47 47 47 46 46 46 45 44 44 44 43 42 42 41 40 40
49 36 33 36 45 45 41 47 49 49 43 38 36 44 49 49 52 54 51 51 52 51 52 51 50 49 48 47 47 47 47 46 46 45 44 43 43 42 42 41 40 40 39 38
51 39 36 39 47 48 38 42 45 43 36 39 41 45 45 48 49 51 53 52 52 51 51 50 50 49 48 47 47 47 47 47 45 44 43 42 42 41 41 40 39 38 38 37
46 33 38 42 47 48 44 42 43 41 43 40 45 47 54 52 52 52 53 52 51 50 50 50 49 49 48 47 48 48 48 46 45 43 42 42 41 41 40 38 37 36 35 34
42 34 38 35 42 44 41 44 45 45 45 47 50 50 63 61 56 52 52 50 48 49 50 51 49 48 47 47 47 45 47 44 44 42 41 41 40 38 37 36 34 33 32 31
34 33 33 31 38 38 29 35 41 46 49 50 43 50 40 45 47 49 50 50 48 49 49 49 49 48 47 46 45 45 45 45 41 39 38 38 37 34 34 33 31 30 30 30
32 32 33 31 31 25 40 50 47 45 48 50 47 39 42 43 44 44 51 50 48 48 48 49 49 50 46 47 45 46 43 41 37 35 35 34 33 31 32 31 29 29 29 27
34 34 32 30 30 37 43 38 39 41 42 48 44 40 37 37 40 42 47 49 49 48 49 49 48 49 47 45 44 40 37 37 35 34 34 33 32 30 30 27 28 28 26 25
30 32 32 28 27 27 38 39 43 45 33 37 39 36 35 36 32 43 43 42 43 45 43 43 42 40 39 38 37 35 34 34 33 34 35 33 31 29 27 26 26 26 24 24
25 28 27 29 28 32 40 36 40 30 35 36 39 38 37 38 43 43 41 41 41 40 38 39 39 37 37 34 34 33 33 32 35 32 31 30 28 26 26 25 24 22 21 21
30 28 28 30 28 26 35 33 34 37 36 36 39 39 37 38 38 38 39 38 38 37 37 37 34 33 33 33 33 32 32 33 30 29 27 25 23 24 23 20 20 19 18 16
29 35 34 34 33 32 36 34 39 39 38 37 38 38 39 38 38 39 38 37 38 37 34 33 34 32 31 31 32 31 31 29 26 24 22 20 19 21 19 17 17 16 16 17
32 34 32 31 29 30 34 35 36 38 38 38 38 37 40 39 38 36 35 35 35 33 32 30 30 30 30 29 28 29 27 26 21 21 19 18 16 17 17 18 19 18 19 18
32 33 29 25 29 32 30 31 36 37 36 35 35 35 38 36 33 34 32 32 34 33 30 29 29 29 29 28 27 25 23 20 21 20 19 19 18 16 17 17 19 19 20 21
33 33 30 26 32 33 34 39 40 37 35 35 35 33 34 35 34 33 31 32 31 30 28 27 27 26 26 25 22 19 18 18 20 19 19 20 20 19 18 19 18 23 23 23
MSLP
1014.77 1014.21 1012.95 1012.57 1012.72 1012.16 1011.75 1011.79 1011.47 1011.53 1012.64 1013.32 1012.69 1012.47 1012.57 1014.27 1015.19 1015.44 1016.11 1016.98 1017.91 1018.90 1020.11 1020.74 1021.14 1021.36 1021.66 1021.82 1021.95 1022.16 1022.22 1022.34 1022.34 1022.38 1022.47 1022.63 1023.07 1023.71 1024.24 1024.73 1024.91 1025.04 1025.08 1025.10
1014.94 1013.44 1012.44 1012.49 1012.75 1012.46 1012.29 1012.16 1011.88 1011.98 1012.92 1013.63 1012.71 1012.08 1012.18 1012.91 1013.98 1014.79 1015.59 1016.55 1017.58 1018.96 1019.81 1020.55 1021.03 1021.42 1021.68 1021.94 1022.09 1022.22 1022.25 1022.05 1022.11 1022.26 1022.56 1022.99 1023.75 1024.39 1024.95 1025.50 1025.74 1025.86 1026.03 1025.99
1013.09 1012.20 1012.50 1012.68 1013.01 1013.03 1012.68 1012.35 1012.22 1012.38 1013.18 1013.66 1013.00 1011.60 1011.48 1011.76 1013.57 1014.96 1015.76 1016.45 1017.43 1018.41 1019.28 1020.35 1021.02 1021.40 1021.73 1022.03 1022.13 1022.15 1022.31 1022.44 1022.59 1022.84 1023.18 1023.68 1024.19 1024.59 1025.30 1026.07 1026.48 1026.62 1026.71 1026.74
1012.91 1012.41 1012.90 1012.95 1012.92 1013.25 1012.53 1012.48 1012.98 1013.22 1013.62 1012.81 1013.09 1010.33 1009.97 1010.87 1013.08 1014.57 1015.71 1016.40 1017.28 1018.24 1019.24 1020.12 1020.91 1021.54 1021.99 1022.42 1022.67 1022.68 1022.85 1022.93 1022.98 1022.83 1023.24 1023.57 1024.27 1025.14 1026.02 1026.57 1027.08 1027.39 1027.40 1027.35
1011.90 1012.61 1012.96 1012.73 1012.42 1013.32 1013.09 1013.48 1013.74 1013.88 1013.78 1013.51 1013.06 1012.84 1009.54 1010.49 1012.16 1013.19 1014.75 1016.09 1017.00 1018.15 1019.16 1020.01 1020.86 1021.72 1022.37 1022.63 1022.85 1023.07 1023.15 1023.23 1023.48 1023.65 1023.95 1024.46 1025.18 1025.94 1026.60 1027.24 1027.68 1028.12 1028.30 1028.40
1012.24 1012.97 1012.93 1012.60 1013.14 1013.45 1014.00 1014.38 1014.77 1014.86 1014.58 1012.74 1012.48 1012.35 1008.08 1009.52 1009.97 1011.66 1013.87 1015.54 1016.65 1017.99 1019.10 1020.20 1021.27 1021.97 1022.44 1022.86 1022.97 1023.18 1023.48 1023.74 1023.86 1023.94 1024.37 1024.88 1025.43 1026.12 1026.83 1027.54 1028.09 1028.42 1028.65 1028.94
1012.29 1012.08 1012.93 1013.25 1013.56 1014.41 1014.19 1014.45 1014.43 1014.35 1014.36 1012.25 1011.69 1011.06 1008.38 1008.74 1009.83 1010.58 1012.62 1014.61 1016.05 1017.63 1018.83 1019.94 1021.08 1021.83 1022.40 1022.84 1023.14 1023.40 1023.82 1024.34 1024.50 1024.60 1024.82 1025.15 1025.67 1026.23 1026.75 1027.47 1027.95 1028.41 1028.87 1029.38
1010.51 1010.60 1011.58 1012.32 1011.78 1012.24 1013.45 1013.46 1013.24 1013.22 1013.29 1012.30 1012.85 1010.21 1008.99 1009.54 1010.15 1011.23 1012.61 1014.28 1015.73 1017.26 1018.53 1019.77 1020.83 1021.57 1022.16 1022.58 1023.00 1023.40 1023.88 1024.33 1024.78 1025.17 1025.43 1025.80 1026.16 1026.50 1026.92 1027.44 1028.12 1028.76 1029.22 1029.67
1010.08 1010.33 1010.90 1011.80 1012.03 1012.40 1012.74 1012.90 1013.09 1013.48 1014.40 1013.57 1010.99 1009.80 1009.60 1010.46 1011.20 1011.90 1012.57 1013.89 1015.17 1016.68 1018.05 1019.24 1020.45 1021.35 1022.05 1022.51 1022.76 1023.17 1024.08 1024.80 1025.10 1025.29 1025.61 1026.21 1026.79 1027.13 1027.44 1028.00 1028.49 1028.86 1029.66 1029.97
1009.91 1010.83 1011.71 1012.58 1013.03 1012.89 1012.61 1012.66 1013.53 1013.73 1013.06 1011.73 1009.04 1008.64 1007.99 1009.58 1010.32 1011.55 1012.28 1013.44 1015.01 1016.49 1017.73 1018.78 1019.88 1020.83 1021.79 1022.55 1023.05 1023.63 1023.96 1024.43 1025.32 1025.94 1026.23 1026.42 1026.90 1027.33 1027.97 1028.57 1029.27 1029.76 1030.13 1030.41
1010.53 1011.49 1012.53 1013.00 1012.33 1011.65 1012.87 1012.40 1011.87 1011.76 1011.31 1010.19 1008.71 1006.68 1005.91 1006.64 1008.31 1009.69 1011.26 1012.51 1013.89 1015.40 1016.67 1017.87 1019.00 1020.06 1021.10 1022.00 1022.74 1023.45 1024.17 1024.80 1025.42 1026.13 1026.80 1027.19 1027.50 1027.86 1028.36 1028.83 1029.25 1029.79 1030.15 1030.58
1010.39 1011.54 1011.76 1010.91 1011.07 1011.22 1010.82 1010.71 1011.17 1010.65 1010.52 1009.82 1008.64 1005.74 1006.29 1006.61 1007.53 1009.19 1010.62 1011.97 1013.36 1014.57 1015.64 1016.84 1018.33 1019.62 1020.54 1021.30 1022.18 1023.12 1023.93 1024.44 1025.20 1025.86 1026.50 1027.25 1027.75 1027.95 1028.45 1028.94 1029.45 1030.03 1030.18 1030.59
1010.13 1011.68 1011.90 1011.23 1011.41 1011.72 1011.10 1010.45 1010.10 1010.18 1010.04 1008.40 1008.56 1005.82 1007.05 1007.65 1008.01 1008.99 1010.15 1011.28 1012.60 1014.03 1015.51 1016.51 1017.56 1018.56 1019.55 1020.46 1021.44 1022.45 1023.28 1024.06 1024.81 1025.60 1026.48 1027.26 1027.72 1028.26 1028.40 1028.95 1029.44 1030.06 1030.32 1030.50
1009.30 1010.34 1009.96 1008.47 1007.25 1007.82 1009.32 1009.08 1009.33 1009.77 1009.53 1005.83 1006.32 1005.94 1007.16 1007.59 1007.99 1008.70 1009.54 1010.73 1011.90 1013.13 1014.64 1015.92 1016.85 1017.70 1018.77 1019.68 1020.62 1021.72 1022.59 1023.54 1024.51 1025.44 1026.12 1026.79 1027.44 1027.86 1028.33 1028.80 1029.12 1029.85 1030.23 1030.47
1010.13 1010.18 1010.08 1008.21 1007.68 1007.70 1007.59 1007.67 1008.27 1008.39 1006.00 1007.35 1002.97 1005.33 1005.57 1006.36 1007.28 1007.92 1008.82 1010.45 1011.82 1012.87 1013.92 1014.77 1015.68 1016.80 1018.09 1019.19 1020.22 1021.27 1022.08 1023.01 1023.87 1024.82 1025.68 1026.29 1026.78 1027.39 1028.13 1028.50 1028.80 1029.56 1030.19 1030.49
1010.70 1010.02 1010.23 1008.88 1007.46 1007.97 1007.52 1007.53 1006.57 1005.94 1005.75 1006.04 1004.37 1004.20 1004.80 1005.41 1007.25 1008.10 1008.79 1009.84 1010.92 1011.90 1012.60 1013.53 1014.94 1016.29 1017.43 1018.37 1019.36 1020.57 1021.34 1022.29 1023.27 1024.14 1025.05 1025.89 1026.56 1027.09 1027.75 1028.29 1029.05 1029.66 1030.16 1030.57
1011.32 1010.80 1010.29 1008.33 1008.16 1008.21 1007.22 1004.81 1006.38 1005.06 1004.76 1004.76 1005.15 1003.43 1006.28 1007.06 1008.38 1008.59 1008.82 1009.62 1010.23 1011.02 1011.89 1013.02 1014.06 1015.39 1016.66 1017.65 1018.74 1019.79 1020.61 1021.55 1022.80 1023.81 1024.68 1025.34 1025.89 1026.72 1027.65 1028.37 1029.04 1029.69 1030.14 1030.57
1010.78 1010.80 1010.45 1008.62 1008.71 1006.76 1003.86 1004.76 1004.73 1004.58 1004.26 1004.90 1005.44 1006.44 1007.33 1007.61 1008.33 1009.43 1009.83 1009.96 1010.42 1011.05 1011.87 1012.94 1013.96 1015.06 1016.46 1017.59 1018.62 1019.63 1020.55 1021.49 1022.52 1023.54 1024.34 1024.98 1025.73 1026.64 1027.33 1028.00 1028.64 1029.38 1029.87 1030.42
1011.17 1010.76 1009.91 1008.99 1007.81 1005.76 1004.60 1005.40 1005.31 1004.98 1003.93 1004.79 1005.71 1007.08 1008.26 1009.18 1010.26 1010.56 1010.45 1010.55 1011.00 1011.39 1011.96 1012.77 1013.84 1014.84 1016.23 1017.30 1018.28 1019.39 1020.61 1021.52 1022.40 1022.88 1023.59 1024.40 1025.17 1026.10 1026.80 1027.45 1028.01 1028.73 1029.35 1029.88
1011.26 1010.97 1010.05 1009.20 1007.76 1006.40 1005.04 1004.91 1005.31 1005.61 1005.28 1005.20 1006.39 1007.32 1008.43 1010.15 1011.07 1010.10 1010.47 1011.25 1011.75 1012.20 1012.81 1013.53 1014.51 1015.50 1016.60 1017.67 1018.58 1019.53 1020.43 1021.28 1021.81 1022.29 1022.83 1023.67 1024.63 1025.37 1026.09 1026.84 1027.61 1028.20 1028.84 1029.26
1010.79 1010.77 1009.84 1008.72 1007.77 1006.99 1006.05 1006.75 1006.77 1007.14 1006.19 1005.67 1006.32 1007.32 1008.43 1009.33 1009.66 1009.73 1010.60 1011.64 1012.20 1012.61 1013.34 1014.19 1015.02 1015.86 1016.67 1017.78 1018.69 1019.61 1020.32 1020.86 1021.15 1021.97 1022.80 1023.68 1024.43 1025.17 1025.88 1026.60 1027.28 1027.96 1028.49 1028.96
1008.53 1009.01 1008.84 1008.87 1008.24 1007.60 1006.65 1007.89 1007.76 1007.12 1006.79 1006.92 1007.28 1007.87 1008.45 1009.01 1009.72 1010.40 1010.92 1011.75 1012.55 1013.19 1013.97 1014.77 1015.73 1016.63 1017.25 1017.95 1018.79 1019.60 1020.17 1020.63 1021.28 1022.16 1022.97 1023.69 1024.48 1025.21 1025.89 1026.54 1027.19 1027.78 1028.26 1028.69
1007.87 1007.11 1007.29 1007.73 1007.66 1007.87 1007.76 1008.00 1007.68 1007.60 1007.41 1007.73 1007.93 1008.25 1008.62 1009.46 1010.27 1010.87 1011.43 1012.27 1013.11 1013.87 1014.72 1015.40 1016.20 1016.95 1017.57 1018.10 1018.76 1019.56 1019.96 1020.72 1021.54 1022.36 1023.16 1023.98 1024.73 1025.35 1025.96 1026.54 1026.92 1027.53 1027.94 1028.08
1007.15 1007.46 1007.63 1007.99 1008.68 1008.77 1008.75 1008.72 1008.43 1008.15 1008.42 1008.56 1008.55 1008.78 1009.13 1009.72 1010.76 1011.53 1012.17 1012.96 1013.68 1014.38 1015.07 1015.70 1016.57 1017.33 1017.94 1018.47 1019.00 1019.48 1020.19 1020.92 1021.83 1022.48 1023.34 1024.12 1024.79 1025.42 1025.94 1026.36 1026.68 1026.97 1027.14 1027.29
1007.21 1007.41 1007.77 1008.87 1009.23 1009.43 1009.77 1009.80 1009.31 1008.94 1009.23 1009.34 1009.44 1009.62 1010.02 1010.63 1011.59 1012.15 1012.79 1013.41 1014.08 1014.79 1015.62 1016.42 1017.04 1017.57 1017.96 1018.62 1019.35 1019.84 1020.49 1021.21 1021.96 1022.64 1023.25 1023.96 1024.58 1025.15 1025.53 1026.00 1026.10 1026.28 1026.42 1026.52
1006.97 1006.83 1007.09 1007.67 1008.71 1008.89 1008.93 1008.48 1008.34 1009.16 1009.56 1009.87 1010.12 1010.66 1011.05 1011.29 1011.99 1012.72 1013.42 1013.98 1014.56 1015.32 1016.08 1016.79 1017.29 1017.95 1018.50 1019.23 1020.02 1020.63 1021.11 1021.63 1022.15 1022.90 1023.50 1023.89 1024.34 1024.86 1025.23 1025.54 1025.73 1025.68 1025.72 1025.83
Wind_Speed
9 10 15 19 17 18 11 12 14 11 4 5 14 16 12 14 12 12 10 9 8 6 4 3 3 4 6 6 7 6 7 6 5 5 6 7 9 9 10 9 12 12 11 11
5 16 19 15 10 16 16 16 17 15 4 5 13 19 16 14 17 15 13 11 10 9 8 7 6 6 7 7 6 6 5 5 5 6 7 7 8 9 10 9 11 13 12 12
18 7 6 13 10 12 16 18 15 15 1 11 14 21 23 21 11 9 11 11 11 12 12 10 9 8 8 7 7 8 8 8 8 9 8 9 9 8 9 9 9 10 11 12
17 19 7 10 16 14 17 15 15 14 8 11 4 12 9 15 15 15 15 14 14 14 12 11 10 9 8 7 6 8 9 9 7 9 9 9 8 9 9 9 8 8 10 12
6 8 12 17 16 13 8 2 7 11 13 16 17 11 7 5 14 19 18 18 17 15 14 13 11 9 8 7 7 8 9 10 9 10 11 9 11 8 8 8 10 10 9 11
17 4 10 11 2 10 10 6 2 4 9 15 17 18 13 13 15 16 19 19 19 18 15 13 10 9 9 8 8 9 10 10 10 11 12 13 13 11 8 8 7 6 7 7
18 18 6 5 7 4 13 8 5 6 7 10 2 15 16 4 6 11 22 23 22 19 17 15 13 11 10 9 9 9 10 10 10 11 12 12 12 12 12 9 6 7 6 6
15 11 24 18 24 12 18 18 8 7 9 6 2 12 8 2 9 3 18 20 20 20 16 15 14 12 11 11 11 10 10 11 11 11 12 11 11 7 7 8 7 6 6 6
11 11 2 8 11 17 11 17 14 5 2 4 8 9 5 7 7 7 18 21 21 20 18 18 16 13 13 12 12 12 12 9 10 11 10 10 9 9 9 9 8 6 7 6
2 7 3 6 3 7 8 10 8 7 7 9 9 13 10 11 16 15 19 20 20 19 19 17 16 15 12 12 10 10 11 11 10 9 9 9 9 10 9 8 7 7 7 6
9 4 5 6 13 18 9 11 11 8 9 4 5 8 10 14 19 22 19 20 21 21 20 18 16 14 13 12 12 12 11 11 10 9 8 9 8 9 8 7 8 7 7 6
13 3 8 18 4 14 19 15 21 8 7 10 7 11 2 2 13 17 19 19 20 21 20 19 17 15 14 14 14 13 11 11 10 10 10 9 9 9 8 8 8 7 6 5
13 6 3 4 7 4 11 16 17 20 1 17 8 8 3 4 8 14 17 18 18 19 19 18 17 17 16 15 14 14 13 12 11 11 10 9 9 9 9 8 8 7 6 5
12 7 11 18 6 12 12 19 22 17 11 21 21 11 5 9 13 15 15 17 18 20 20 18 17 17 16 15 14 14 14 12 11 11 11 11 10 9 8 8 7 7 5 6
14 10 18 25 24 11 9 16 25 26 34 19 35 23 13 15 16 18 16 16 18 19 20 21 20 18 16 15 14 14 13 14 13 13 12 12 10 10 9 8 8 7 6 5
4 9 14 21 25 24 22 12 25 32 32 31 33 26 9 15 10 12 16 17 18 20 22 21 19 17 17 17 16 14 14 14 14 14 13 11 11 9 8 8 7 7 6 5
9 7 8 16 11 17 8 34 20 25 30 22 30 31 4 5 8 11 12 15 16 18 20 19 19 17 15 16 15 16 15 13 14 13 12 11 9 10 9 8 7 7 6 6
7 8 6 6 4 12 11 6 18 30 23 23 17 3 2 5 7 4 4 10 12 12 13 14 13 14 13 13 13 11 11 12 13 12 10 9 10 10 10 9 8 7 6 7
5 6 4 6 11 12 17 5 8 14 24 21 15 8 7 7 6 5 6 4 8 9 9 11 10 11 12 11 11 9 10 11 12 13 12 11 11 11 11 11 10 8 7 7
0 4 5 4 6 9 5 5 2 7 14 8 12 12 11 11 8 10 11 6 6 8 7 9 9 8 9 8 9 11 11 11 12 11 12 11 11 11 11 10 9 7 6 6
4 4 12 11 6 6 1 6 2 8 3 2 11 14 14 11 6 5 11 7 7 7 9 8 8 8 7 8 10 9 10 12 9 6 7 8 8 8 8 8 7 7 7 6
12 11 7 6 5 12 8 5 8 2 2 3 5 6 10 7 6 8 9 10 9 10 8 6 7 6 6 8 9 8 9 5 7 7 7 7 7 6 6 8 7 6 6 6
6 5 4 6 1 3 1 4 0 1 1 3 4 4 7 7 5 9 10 10 8 9 7 5 6 7 5 6 6 8 6 8 7 7 6 7 7 6 7 7 7 6 6 5
4 3 1 3 3 4 2 4 4 4 4 1 2 6 8 9 9 6 6 6 6 4 5 4 6 5 5 5 5 3 6 6 7 7 7 6 6 6 5 5 5 5 6 6
2 7 7 4 2 3 4 7 9 6 2 2 3 3 6 8 6 5 5 6 6 6 4 4 6 5 5 6 5 5 5 6 5 5 5 6 5 6 6 6 5 6 6 6
5 5 5 3 11 5 9 16 14 11 6 4 5 5 3 6 8 6 5 5 5 6 4 4 5 4 4 5 5 5 4 4 6 5 5 5 5 5 5 5 5 13 14 14
Wind_Direction
204 219 221 227 228 252 281 285 264 267 99 266 244 253 229 197 213 219 215 206 197 181 147 135 113 110 99 86 87 95 99 100 102 97 100 90 87 83 75 67 63 56 52 53
187 230 240 245 274 239 245 255 257 268 150 251 268 264 257 200 214 219 216 205 190 170 160 146 134 127 105 102 103 107 122 131 93 91 93 95 98 86 85 77 67 63 61 59
228 235 243 222 220 226 238 246 253 259 23 239 273 267 250 236 212 217 228 203 186 178 159 150 147 136 131 122 118 113 107 107 99 103 105 105 112 106 93 78 71 63 65 63
250 244 195 200 229 216 248 233 250 262 253 262 167 282 273 208 209 212 208 197 185 170 159 147 148 142 128 120 113 108 107 101 99 127 131 116 102 99 91 89 85 76 68 68
211 182 202 222 226 203 253 64 225 243 254 270 252 267 270 187 220 211 203 196 184 172 167 158 150 134 117 123 116 116 111 106 106 107 106 104 104 103 100 96 91 81 69 64
262 28 220 222 176 200 131 118 112 254 260 255 238 231 255 205 226 199 191 191 179 172 167 159 149 150 139 134 126 120 116 112 116 116 115 116 118 117 115 108 97 88 81 72
226 221 191 177 151 160 198 181 244 238 209 257 322 216 253 192 185 205 183 184 178 172 172 167 168 168 152 143 133 128 125 119 115 112 114 120 122 119 119 119 113 110 95 82
213 223 199 199 215 196 200 200 198 240 235 266 21 237 240 336 110 167 178 179 175 176 175 175 174 169 161 152 150 144 138 135 132 126 121 119 119 117 116 116 114 109 108 97
206 241 271 180 223 215 175 224 231 316 143 272 214 249 237 164 177 183 174 177 179 177 177 177 175 175 169 168 162 157 152 145 140 134 131 125 120 120 119 120 117 114 111 105
244 266 159 150 188 265 225 171 182 209 226 236 240 241 236 208 196 184 182 184 179 179 180 179 180 180 176 175 167 163 156 151 145 143 138 136 134 130 128 126 120 115 116 123
222 220 137 144 202 189 182 211 221 217 224 252 280 243 192 200 189 187 186 184 181 183 182 181 181 179 178 175 170 168 166 158 154 153 146 140 141 138 137 136 139 146 138 136
195 170 235 229 211 237 224 214 207 207 194 234 279 257 98 101 182 178 183 185 185 187 183 181 179 178 179 177 175 176 175 169 167 163 158 161 158 154 155 153 151 153 145 150
159 192 199 249 209 184 226 215 229 231 316 230 202 248 97 128 159 178 183 183 185 184 183 184 182 184 183 180 179 182 181 178 172 166 171 170 171 175 169 161 160 168 160 149
150 156 207 228 227 152 200 206 207 217 228 239 235 251 175 206 187 180 184 184 183 183 185 187 188 188 185 184 180 185 184 179 175 175 182 183 183 179 175 172 164 169 173 163
174 220 217 244 256 250 199 203 202 207 226 213 246 237 215 202 195 192 179 173 181 186 189 193 192 189 183 182 182 187 185 184 181 185 190 190 182 180 180 170 172 171 176 168
195 235 223 250 245 244 252 244 214 215 228 231 247 250 236 193 183 162 176 174 184 190 196 195 192 186 187 182 184 185 190 185 184 189 193 187 185 178 177 173 174 172 180 178
186 209 206 246 238 252 255 230 233 233 226 228 236 243 107 121 175 193 179 182 188 196 196 192 190 187 187 182 181 188 191 177 185 187 189 189 174 170 177 173 171 184 186 191
179 194 221 264 95 228 249 241 232 231 238 227 242 166 112 160 122 359 273 205 204 195 186 186 183 181 180 179 186 186 180 178 179 185 183 172 169 172 175 176 180 183 185 198
217 188 211 224 223 292 286 191 182 192 242 230 225 144 115 79 74 244 224 222 194 173 169 168 169 174 167 174 169 163 167 173 177 190 184 180 177 177 178 183 183 182 187 195
159 295 224 154 233 232 340 94 100 98 260 181 164 163 136 130 199 230 165 168 143 132 132 130 118 118 137 142 142 153 170 174 192 189 190 179 178 179 183 176 177 173 182 197
154 193 226 223 234 260 164 146 186 166 276 99 159 159 155 179 204 128 141 139 128 120 119 116 128 147 148 143 148 163 167 194 193 155 142 155 164 171 171 162 166 165 181 196
175 175 196 212 227 247 140 102 190 332 36 134 141 164 171 110 115 137 137 132 130 126 123 126 133 146 140 145 153 157 183 158 126 133 144 148 150 159 158 158 161 172 182 196
201 217 186 216 216 338 176 357 84 293 145 167 141 150 139 130 150 149 143 142 143 148 144 141 150 140 140 148 159 168 178 142 134 138 148 148 148 162 161 167 170 182 195 216
223 183 210 155 24 352 325 357 318 356 0 38 83 148 160 144 141 127 128 134 139 132 139 121 127 156 178 171 176 123 127 132 141 154 152 145 157 169 164 185 192 201 205 210
79 157 137 86 20 112 266 260 257 270 294 110 80 127 147 127 135 143 143 151 161 158 134 149 175 189 203 158 158 132 130 130 143 134 143 165 179 183 183 209 206 214 224 227
189 156 170 169 178 167 203 225 221 210 194 171 144 121 131 143 159 145 163 165 162 165 143 168 188 151 132 121 106 91 93 129 142 154 164 179 182 180 209 211 222 236 241 237